Weather History for Houlton, ME

Change the Weather History Date:

Saturday, March 2, 2013

  Actual Average Record
Temperature  
Mean Temperature 33 °F 20 °F  
Max Temperature 36 °F 31 °F 52 °F (1991)
Min Temperature 29 °F 9 °F -31 °F (2001)
Degree Days  
Heating Degree Days 32 45  
Month to date heating degree days 67 90  
Since 1 July heating degree days 6172 6663  
Cooling Degree Days 0 0  
Month to date cooling degree days 0 0  
Year to date cooling degree days 0 0  
Moisture  
Dew Point 28 °F    
Average Humidity 85    
Maximum Humidity 92    
Minimum Humidity 78    
Precipitation  
Precipitation 0.06 in 0.08 in 0.69 in (1983)
Month to date precipitation 0.12 0.16  
Year to date precipitation 2.52 5.02  
Snow  
Snow 0.00 in 0.70 in 4.70 in (1996)
Snow Depth 0.00 in    
Sea Level Pressure  
Sea Level Pressure 29.56 in    
Wind  
Wind Speed 9 mph (North)    
Max Wind Speed 16 mph    
Max Gust Speed 22 mph    
Visibility 5 miles    
Events Fog , Snow    
T = Trace of Precipitation, MM = Missing Value Source: NWS Daily Summary

Daily Weather History Graph

Daily Weather History Graph

Search for Another Location

Airport:

Trip Planner

Search our weather history database for the weather conditions in past years. The results will help you decide how hot, cold, wet, or windy it might be!

Date:

Astronomy

Mar. 02, 2013 Rise Set
Actual Time 6:07 AM EST 5:19 PM EST
Civil Twilight 5:37 AM EST 5:49 PM EST
Nautical Twilight 5:03 AM EST 6:23 PM EST
Astronomical Twilight 4:28 AM EST 6:58 PM EST
Moon 11:16 PM EST (3/2) 8:14 AM EST (3/2)
Length of Visible Light 12h 11m
Length of Day
11h 11m
Waning Gibbous, 74% of the Moon is Illuminated
Mar 2
Waning Gibbous
Mar 4
Last Quarter
Mar 11
New
Mar 19
First Quarter
Mar 27
Full

Hourly Weather History & Observations

Time (EST) Temp. Windchill Dew Point Humidity Pressure Visibility Wind Dir Wind Speed Gust Speed Precip Events Conditions
12:43 AM 30.2 °F 22.6 °F 24.8 °F 80% 29.55 in 10.0 mi NNW 8.1 mph - 0.00 in   Overcast
12:53 AM 28.9 °F 21.9 °F 24.1 °F 82% 29.57 in 10.0 mi NNW 6.9 mph - 0.00 in   Overcast
1:36 AM 28.4 °F 19.7 °F 24.8 °F 86% 29.54 in 10.0 mi North 9.2 mph - N/A   Overcast
1:53 AM 28.9 °F 20.4 °F 24.1 °F 82% 29.56 in 10.0 mi North 9.2 mph - N/A   Overcast
2:20 AM 28.4 °F 18.5 °F 24.8 °F 86% 29.53 in 10.0 mi North 11.5 mph - N/A   Overcast
2:32 AM 28.4 °F 19.7 °F 24.8 °F 86% 29.53 in 10.0 mi North 9.2 mph - N/A   Overcast
2:39 AM 28.4 °F 21.2 °F 24.8 °F 86% 29.53 in 9.0 mi North 6.9 mph - N/A   Overcast
2:53 AM 28.9 °F 21.1 °F 25.0 °F 85% 29.55 in 5.0 mi North 8.1 mph - N/A   Overcast
3:21 AM 28.4 °F 21.2 °F 24.8 °F 86% 29.53 in 2.5 mi North 6.9 mph - 0.00 in Snow Light Snow
3:53 AM 28.9 °F 21.9 °F 25.0 °F 85% 29.55 in 2.0 mi North 6.9 mph - 0.00 in Snow Light Snow
3:58 AM 28.4 °F 22.2 °F 24.8 °F 86% 29.53 in 1.2 mi North 5.8 mph - 0.00 in Snow Light Snow
4:17 AM 28.4 °F 19.7 °F 24.8 °F 86% 29.53 in 1.8 mi North 9.2 mph - 0.00 in Snow Light Snow
4:26 AM 28.4 °F 22.2 °F 26.6 °F 93% 29.53 in 2.5 mi North 5.8 mph - 0.00 in Snow Light Snow
4:53 AM 28.9 °F 21.9 °F 26.1 °F 89% 29.56 in 1.8 mi North 6.9 mph - 0.00 in Snow Light Snow
5:03 AM 28.4 °F 21.2 °F 26.6 °F 93% 29.54 in 1.2 mi North 6.9 mph - 0.00 in Snow Light Snow
5:08 AM 28.4 °F 21.2 °F 26.6 °F 93% 29.54 in 2.0 mi North 6.9 mph - 0.00 in Snow Light Snow
5:22 AM 28.4 °F 20.4 °F 26.6 °F 93% 29.54 in 1.2 mi North 8.1 mph - 0.00 in Snow Light Snow
5:38 AM 28.4 °F 21.2 °F 26.6 °F 93% 29.54 in 1.5 mi North 6.9 mph - 0.00 in Snow Light Snow
5:45 AM 28.4 °F 20.4 °F 26.6 °F 93% 29.54 in 1.2 mi North 8.1 mph - 0.00 in Snow Light Snow
5:53 AM 28.9 °F 21.1 °F 26.1 °F 89% 29.56 in 1.5 mi North 8.1 mph - 0.00 in Snow Light Snow
6:29 AM 30.2 °F 21.9 °F 26.6 °F 86% 29.54 in 2.0 mi North 9.2 mph - 0.00 in Snow Light Snow
6:34 AM 30.2 °F 22.6 °F 26.6 °F 86% 29.54 in 1.2 mi North 8.1 mph - 0.00 in Snow Light Snow
6:53 AM 30.0 °F 21.7 °F 27.0 °F 88% 29.57 in 0.5 mi North 9.2 mph - 0.00 in Fog , Snow Light Snow
7:14 AM 30.2 °F 23.4 °F 26.6 °F 86% 29.54 in 1.2 mi North 6.9 mph - 0.00 in Snow Light Snow
7:53 AM 30.9 °F 24.3 °F 28.0 °F 89% 29.57 in 1.2 mi NNW 6.9 mph - 0.00 in Snow Light Snow
7:57 AM 30.2 °F 22.6 °F 28.4 °F 93% 29.55 in 2.0 mi NNW 8.1 mph - 0.00 in Snow Light Snow
8:07 AM 30.2 °F 21.9 °F 26.6 °F 86% 29.55 in 1.2 mi North 9.2 mph - 0.00 in Snow Light Snow
8:17 AM 30.2 °F 21.3 °F 26.6 °F 86% 29.55 in 1.5 mi North 10.4 mph - 0.00 in Snow Light Snow
8:39 AM 30.2 °F 21.3 °F 26.6 °F 86% 29.55 in 3.0 mi North 10.4 mph - 0.00 in Snow Light Snow
8:53 AM 32.0 °F 23.6 °F 28.0 °F 85% 29.57 in 1.8 mi North 10.4 mph - 0.01 in Snow Light Snow
9:09 AM 32.0 °F 23.6 °F 28.4 °F 87% 29.55 in 1.2 mi North 10.4 mph - 0.00 in Snow Light Snow
9:18 AM 32.0 °F 23.6 °F 28.4 °F 87% 29.55 in 1.8 mi North 10.4 mph - 0.00 in Snow Light Snow
9:25 AM 32.0 °F 24.8 °F 28.4 °F 87% 29.55 in 2.0 mi North 8.1 mph - 0.00 in Snow Light Snow
9:33 AM 32.0 °F 23.0 °F 28.4 °F 87% 29.55 in 1.2 mi North 11.5 mph - 0.00 in Snow Light Snow
9:49 AM 32.0 °F 23.6 °F 28.4 °F 87% 29.55 in 2.0 mi North 10.4 mph - 0.00 in Snow Light Snow
9:53 AM 32.0 °F 23.6 °F 28.9 °F 88% 29.57 in 4.0 mi North 10.4 mph - 0.00 in Snow Light Snow
10:15 AM 33.8 °F 24.8 °F 28.4 °F 81% 29.55 in 2.5 mi North 12.7 mph - 0.01 in Snow Light Snow
10:41 AM 33.8 °F 25.8 °F 28.4 °F 81% 29.55 in 4.0 mi North 10.4 mph - 0.02 in Snow Light Snow
10:53 AM 33.1 °F 23.4 °F 28.9 °F 85% 29.57 in 4.0 mi North 13.8 mph 20.7 mph 0.03 in Snow Light Snow
11:19 AM 33.8 °F 25.3 °F 28.4 °F 81% 29.55 in 1.5 mi North 11.5 mph - 0.01 in Snow Light Snow
11:22 AM 33.8 °F 25.3 °F 28.4 °F 81% 29.55 in 0.8 mi North 11.5 mph 19.6 mph 0.01 in Snow Light Snow
11:33 AM 33.8 °F 25.8 °F 28.4 °F 81% 29.55 in 1.5 mi North 10.4 mph - 0.02 in Snow Light Snow
11:53 AM 35.1 °F 27.9 °F 30.0 °F 82% 29.56 in 3.0 mi North 9.2 mph - 0.04 in Snow Light Snow
12:24 PM 35.6 °F 26.6 °F 28.4 °F 75% 29.54 in 10.0 mi North 13.8 mph - 0.05 in   Overcast
12:45 PM 35.6 °F 29.2 °F 30.2 °F 81% 29.54 in 7.0 mi North 8.1 mph - 0.08 in Snow Light Snow
12:53 PM 36.0 °F 29.0 °F 30.0 °F 79% 29.56 in 10.0 mi North 9.2 mph - 0.09 in   Overcast
1:53 PM 36.0 °F 28.5 °F 30.0 °F 79% 29.56 in 10.0 mi North 10.4 mph - 0.09 in   Overcast
2:53 PM 36.0 °F 28.0 °F 30.9 °F 82% 29.57 in 10.0 mi North 11.5 mph 20.7 mph 0.08 in   Overcast
3:53 PM 35.1 °F 25.5 °F 30.9 °F 85% 29.57 in 7.0 mi North 15.0 mph - 0.07 in   Overcast
4:23 PM 35.6 °F 27.5 °F 30.2 °F 81% 29.56 in 8.0 mi North 11.5 mph - 0.03 in   Overcast
4:53 PM 35.1 °F 27.9 °F 32.0 °F 89% 29.58 in 10.0 mi North 9.2 mph - 0.05 in   Overcast
5:53 PM 35.1 °F 27.9 °F 32.0 °F 89% 29.60 in 10.0 mi North 9.2 mph - 0.02 in   Overcast
6:53 PM 35.1 °F 29.3 °F 30.9 °F 85% 29.60 in 10.0 mi North 6.9 mph - 0.03 in   Overcast
7:53 PM 35.6 °F 28.0 °F 30.2 °F 81% 29.59 in 10.0 mi North 10.4 mph - N/A   Overcast
8:29 PM 33.8 °F 27.0 °F 30.2 °F 87% 29.58 in 10.0 mi North 8.1 mph - 0.01 in   Overcast
8:53 PM 34.0 °F 26.6 °F 30.9 °F 89% 29.60 in 10.0 mi North 9.2 mph - 0.01 in   Overcast
9:53 PM 34.0 °F 27.2 °F 30.9 °F 89% 29.59 in 10.0 mi North 8.1 mph - N/A   Overcast
10:21 PM 33.8 °F 27.7 °F 30.2 °F 87% 29.57 in 10.0 mi North 6.9 mph - N/A   Overcast
10:30 PM 33.8 °F 27.7 °F 30.2 °F 87% 29.57 in 10.0 mi NNE 6.9 mph - N/A   Overcast
10:37 PM 33.8 °F 28.6 °F 30.2 °F 87% 29.56 in 10.0 mi NNE 5.8 mph - N/A   Overcast
10:45 PM 33.8 °F 29.6 °F 30.2 °F 87% 29.56 in 10.0 mi NNE 4.6 mph - N/A   Overcast
10:53 PM 34.0 °F 28.0 °F 30.0 °F 85% 29.58 in 10.0 mi NNE 6.9 mph - N/A   Overcast
11:20 PM 33.8 °F 28.6 °F 30.2 °F 87% 29.56 in 10.0 mi North 5.8 mph - N/A   Overcast
11:53 PM 34.0 °F 26.6 °F 28.9 °F 82% 29.57 in 10.0 mi North 9.2 mph - N/A   Overcast